Time,TemperatureF,DewpointF,PressureIn,WindDirection,WindDirectionDegrees,WindSpeedMPH,WindSpeedGustMPH,Humidity,HourlyPrecipIn,Conditions,Clouds,dailyrainin,SoftwareType,DateUTC
2013-01-25 00:08:00,15.8,-1.0,30.38,South,169,2.0,10.0,48,0.00,,,0.00,weatherlink.com 1.10,2013-01-25 05:08:00,
2013-01-25 00:23:00,15.7,-1.0,30.39,WSW,249,1.0,8.0,48,0.00,,,0.00,weatherlink.com 1.10,2013-01-25 05:23:00,
2013-01-25 00:38:00,15.4,-1.0,30.38,WSW,255,1.0,6.0,49,0.00,,,0.00,weatherlink.com 1.10,2013-01-25 05:38:00,
2013-01-25 00:53:00,15.2,-1.0,30.39,NW,326,3.0,9.0,49,0.00,,,0.00,weatherlink.com 1.10,2013-01-25 05:53:00,
2013-01-25 01:08:00,15.1,-1.0,30.39,WNW,289,4.0,9.0,49,0.00,,,0.00,weatherlink.com 1.10,2013-01-25 06:08:00,
2013-01-25 01:38:00,14.9,0.0,30.40,WSW,252,2.0,8.0,51,0.00,,,0.00,weatherlink.com 1.10,2013-01-25 06:38:00,
2013-01-25 01:53:00,14.7,0.0,30.39,WNW,297,4.0,12.0,52,0.00,,,0.00,weatherlink.com 1.10,2013-01-25 06:53:00,
2013-01-25 02:08:00,14.5,0.0,30.40,West,266,0.0,8.0,52,0.00,,,0.00,weatherlink.com 1.10,2013-01-25 07:08:00,
2013-01-25 02:23:00,14.3,-1.0,30.40,WNW,301,0.0,5.0,52,0.00,,,0.00,weatherlink.com 1.10,2013-01-25 07:23:00,
2013-01-25 02:38:00,14.2,0.0,30.40,West,274,2.0,9.0,53,0.00,,,0.00,weatherlink.com 1.10,2013-01-25 07:38:00,
2013-01-25 02:53:00,14.0,0.0,30.39,WSW,239,3.0,7.0,54,0.00,,,0.00,weatherlink.com 1.10,2013-01-25 07:53:00,
2013-01-25 03:08:00,13.9,0.0,30.39,WSW,246,5.0,7.0,55,0.00,,,0.00,weatherlink.com 1.10,2013-01-25 08:08:00,
2013-01-25 03:23:00,13.9,1.0,30.39,WSW,241,0.0,7.0,56,0.00,,,0.00,weatherlink.com 1.10,2013-01-25 08:23:00,
2013-01-25 03:39:00,13.9,1.0,30.39,WSW,249,1.0,7.0,56,0.00,,,0.00,weatherlink.com 1.10,2013-01-25 08:39:00,
2013-01-25 03:54:00,13.9,1.0,30.39,West,274,0.0,6.0,57,0.00,,,0.00,weatherlink.com 1.10,2013-01-25 08:54:00,
2013-01-25 04:09:00,13.7,1.0,30.39,West,278,2.0,5.0,58,0.00,,,0.00,weatherlink.com 1.10,2013-01-25 09:09:00,
2013-01-25 04:24:00,13.7,1.0,30.39,SW,236,1.0,7.0,58,0.00,,,0.00,weatherlink.com 1.10,2013-01-25 09:24:00,
2013-01-25 04:39:00,13.7,2.0,30.40,West,280,1.0,6.0,59,0.00,,,0.00,weatherlink.com 1.10,2013-01-25 09:39:00,
2013-01-25 04:54:00,13.6,2.0,30.39,West,259,1.0,4.0,60,0.00,,,0.00,weatherlink.com 1.10,2013-01-25 09:54:00,
2013-01-25 05:09:00,13.6,2.0,30.39,WSW,245,1.0,7.0,60,0.00,,,0.00,weatherlink.com 1.10,2013-01-25 10:09:00,
2013-01-25 05:24:00,13.6,2.0,30.39,SW,219,3.0,4.0,61,0.00,,,0.00,weatherlink.com 1.10,2013-01-25 10:24:00,
2013-01-25 05:39:00,13.7,2.0,30.39,WSW,246,2.0,8.0,61,0.00,,,0.00,weatherlink.com 1.10,2013-01-25 10:39:00,
2013-01-25 05:54:00,13.6,2.0,30.39,WSW,242,3.0,5.0,61,0.00,,,0.00,weatherlink.com 1.10,2013-01-25 10:54:00,
2013-01-25 06:09:00,13.7,2.0,30.39,West,276,3.0,6.0,61,0.00,,,0.00,weatherlink.com 1.10,2013-01-25 11:09:00,
2013-01-25 06:24:00,13.8,3.0,30.40,WSW,240,0.0,6.0,61,0.00,,,0.00,weatherlink.com 1.10,2013-01-25 11:24:00,
2013-01-25 06:39:00,13.7,3.0,30.40,WSW,256,0.0,5.0,62,0.00,,,0.00,weatherlink.com 1.10,2013-01-25 11:39:00,
2013-01-25 06:55:00,13.9,3.0,30.41,West,278,1.0,7.0,62,0.00,,,0.00,weatherlink.com 1.10,2013-01-25 11:55:00,
2013-01-25 07:10:00,14.0,3.0,30.40,SSW,204,2.0,7.0,62,0.00,,,0.00,weatherlink.com 1.10,2013-01-25 12:10:00,
2013-01-25 07:25:00,14.1,3.0,30.40,WNW,290,2.0,7.0,62,0.00,,,0.00,weatherlink.com 1.10,2013-01-25 12:25:00,
2013-01-25 07:40:00,14.3,4.0,30.39,WSW,255,2.0,6.0,63,0.00,,,0.00,weatherlink.com 1.10,2013-01-25 12:40:00,
2013-01-25 07:55:00,14.5,4.0,30.38,West,270,0.0,4.0,63,0.00,,,0.00,weatherlink.com 1.10,2013-01-25 12:55:00,
2013-01-25 08:10:00,14.9,4.0,30.38,NW,325,1.0,2.0,62,0.00,,,0.00,weatherlink.com 1.10,2013-01-25 13:10:00,
2013-01-25 08:25:00,15.2,4.0,30.38,West,266,0.0,2.0,62,0.00,,,0.00,weatherlink.com 1.10,2013-01-25 13:25:00,
2013-01-25 08:40:00,15.7,4.0,30.39,West,280,1.0,8.0,60,0.00,,,0.00,weatherlink.com 1.10,2013-01-25 13:40:00,
2013-01-25 08:55:00,16.2,4.0,30.39,WNW,298,0.0,4.0,60,0.00,,,0.00,weatherlink.com 1.10,2013-01-25 13:55:00,
2013-01-25 09:10:00,16.7,4.0,30.40,West,263,1.0,6.0,58,0.00,,,0.00,weatherlink.com 1.10,2013-01-25 14:10:00,
2013-01-25 09:25:00,17.2,5.0,30.40,NNE,19,1.0,5.0,58,0.00,,,0.00,weatherlink.com 1.10,2013-01-25 14:25:00,
2013-01-25 09:40:00,17.6,5.0,30.39,North,5,4.0,6.0,57,0.00,,,0.00,weatherlink.com 1.10,2013-01-25 14:40:00,
2013-01-25 09:55:00,18.1,5.0,30.40,West,260,1.0,4.0,57,0.00,,,0.00,weatherlink.com 1.10,2013-01-25 14:55:00,
2013-01-25 10:10:00,18.8,5.0,30.40,NW,314,1.0,5.0,55,0.00,,,0.00,weatherlink.com 1.10,2013-01-25 15:10:00,
2013-01-25 10:25:00,19.5,5.0,30.40,NNW,338,1.0,3.0,53,0.00,,,0.00,weatherlink.com 1.10,2013-01-25 15:25:00,
2013-01-25 10:41:00,19.8,5.0,30.39,West,270,1.0,4.0,52,0.00,,,0.00,weatherlink.com 1.10,2013-01-25 15:41:00,
2013-01-25 10:56:00,20.1,5.0,30.38,West,278,1.0,3.0,51,0.00,,,0.00,weatherlink.com 1.10,2013-01-25 15:56:00,
2013-01-25 11:11:00,20.4,4.0,30.36,SW,229,2.0,4.0,50,0.00,,,0.00,weatherlink.com 1.10,2013-01-25 16:11:00,
2013-01-25 11:26:00,21.2,4.0,30.35,SSW,212,0.0,3.0,48,0.00,,,0.00,weatherlink.com 1.10,2013-01-25 16:26:00,
2013-01-25 11:41:00,21.9,5.0,30.34,WNW,290,0.0,4.0,48,0.00,,,0.00,weatherlink.com 1.10,2013-01-25 16:41:00,
2013-01-25 11:56:00,22.3,5.0,30.32,WNW,290,0.0,4.0,47,0.00,,,0.00,weatherlink.com 1.10,2013-01-25 16:56:00,
2013-01-25 12:11:00,22.6,4.0,30.30,SW,226,0.0,2.0,45,0.00,,,0.00,weatherlink.com 1.10,2013-01-25 17:11:00,
2013-01-25 12:26:00,22.7,4.0,30.30,SW,236,0.0,4.0,45,0.00,,,0.00,weatherlink.com 1.10,2013-01-25 17:26:00,
2013-01-25 12:41:00,23.2,4.0,30.29,West,264,0.0,1.0,43,0.00,,,0.00,weatherlink.com 1.10,2013-01-25 17:41:00,
2013-01-25 12:56:00,23.8,5.0,30.29,ESE,108,1.0,2.0,44,0.00,,,0.00,weatherlink.com 1.10,2013-01-25 17:56:00,
2013-01-25 13:11:00,23.8,4.0,30.28,WSW,243,2.0,4.0,42,0.00,,,0.00,weatherlink.com 1.10,2013-01-25 18:11:00,
2013-01-25 13:26:00,24.0,4.0,30.26,East,89,0.0,4.0,42,0.00,,,0.00,weatherlink.com 1.10,2013-01-25 18:26:00,
2013-01-25 13:41:00,24.4,4.0,30.24,SE,139,0.0,4.0,41,0.00,,,0.00,weatherlink.com 1.10,2013-01-25 18:41:00,
2013-01-25 13:56:00,25.0,4.0,30.24,West,274,1.0,2.0,40,0.00,,,0.00,weatherlink.com 1.10,2013-01-25 18:56:00,
2013-01-25 14:11:00,24.4,3.0,30.24,WSW,242,0.0,4.0,40,0.00,,,0.00,weatherlink.com 1.10,2013-01-25 19:11:00,
2013-01-25 14:26:00,24.8,4.0,30.23,SE,135,0.0,3.0,41,0.00,,,0.00,weatherlink.com 1.10,2013-01-25 19:26:00,
2013-01-25 14:41:00,25.2,4.0,30.22,WSW,242,0.0,4.0,40,0.00,,,0.00,weatherlink.com 1.10,2013-01-25 19:41:00,
2013-01-25 14:56:00,25.1,5.0,30.22,WSW,257,1.0,3.0,42,0.00,,,0.00,weatherlink.com 1.10,2013-01-25 19:56:00,
2013-01-25 15:11:00,25.2,7.0,30.21,SSW,204,0.0,5.0,45,0.00,,,0.00,weatherlink.com 1.10,2013-01-25 20:11:00,
2013-01-25 15:27:00,24.5,7.0,30.21,SW,236,0.0,4.0,47,0.00,,,0.00,weatherlink.com 1.10,2013-01-25 20:27:00,
2013-01-25 15:42:00,24.3,7.0,30.21,West,259,0.0,5.0,48,0.00,,,0.00,weatherlink.com 1.10,2013-01-25 20:42:00,
2013-01-25 15:57:00,23.8,5.0,30.21,WNW,295,1.0,4.0,45,0.00,,,0.00,weatherlink.com 1.10,2013-01-25 20:57:00,
2013-01-25 16:12:00,23.7,9.0,30.21,West,267,2.0,4.0,53,0.00,,,0.00,weatherlink.com 1.10,2013-01-25 21:12:00,
2013-01-25 16:27:00,23.3,9.0,30.20,West,264,5.0,6.0,55,0.00,,,0.00,weatherlink.com 1.10,2013-01-25 21:27:00,
2013-01-25 16:42:00,22.9,10.0,30.20,WSW,257,1.0,4.0,57,0.00,,,0.00,weatherlink.com 1.10,2013-01-25 21:42:00,
2013-01-25 16:57:00,23.0,10.0,30.19,West,274,3.0,4.0,58,0.00,,,0.00,weatherlink.com 1.10,2013-01-25 21:57:00,
2013-01-25 17:12:00,23.0,10.0,30.18,WSW,250,3.0,4.0,59,0.00,,,0.00,weatherlink.com 1.10,2013-01-25 22:12:00,
2013-01-25 17:27:00,22.8,12.0,30.18,East,98,0.0,2.0,63,0.00,,,0.00,weatherlink.com 1.10,2013-01-25 22:27:00,
2013-01-25 17:42:00,22.3,15.0,30.17,WSW,252,3.0,3.0,73,0.00,,,0.00,weatherlink.com 1.10,2013-01-25 22:42:00,
2013-01-25 17:57:00,21.5,17.0,30.16,WSW,258,0.0,2.0,81,0.00,,,0.00,weatherlink.com 1.10,2013-01-25 22:57:00,
2013-01-25 18:12:00,21.2,17.0,30.14,WSW,252,0.0,2.0,84,0.00,,,0.00,weatherlink.com 1.10,2013-01-25 23:12:00,
2013-01-25 18:27:00,20.8,17.0,30.13,WSW,257,0.0,3.0,86,0.00,,,0.00,weatherlink.com 1.10,2013-01-25 23:27:00,
2013-01-25 18:42:00,20.6,17.0,30.13,NE,36,0.0,1.0,86,0.00,,,0.00,weatherlink.com 1.10,2013-01-25 23:42:00,
2013-01-25 18:57:00,20.7,17.0,30.13,WSW,242,0.0,2.0,87,0.00,,,0.00,weatherlink.com 1.10,2013-01-25 23:57:00,
2013-01-25 19:12:00,20.9,18.0,30.12,WSW,253,0.0,1.0,87,0.00,,,0.00,weatherlink.com 1.10,2013-01-26 00:12:00,
2013-01-25 19:27:00,21.0,18.0,30.12,WSW,257,2.0,3.0,87,0.00,,,0.00,weatherlink.com 1.10,2013-01-26 00:27:00,
2013-01-25 19:42:00,21.0,18.0,30.11,WSW,256,0.0,2.0,88,0.00,,,0.00,weatherlink.com 1.10,2013-01-26 00:42:00,
2013-01-25 19:57:00,21.0,18.0,30.11,WSW,246,1.0,2.0,88,0.00,,,0.00,weatherlink.com 1.10,2013-01-26 00:57:00,
2013-01-25 20:12:00,21.1,18.0,30.11,WSW,249,0.0,2.0,88,0.00,,,0.00,weatherlink.com 1.10,2013-01-26 01:12:00,
2013-01-25 20:27:00,21.1,18.0,30.11,SSW,195,1.0,3.0,89,0.00,,,0.00,weatherlink.com 1.10,2013-01-26 01:27:00,
2013-01-25 20:42:00,21.2,19.0,30.10,WSW,240,1.0,2.0,89,0.00,,,0.00,weatherlink.com 1.10,2013-01-26 01:42:00,
2013-01-25 20:57:00,21.2,18.0,30.10,West,259,0.0,3.0,88,0.00,,,0.00,weatherlink.com 1.10,2013-01-26 01:57:00,
2013-01-25 21:12:00,21.2,19.0,30.09,West,266,1.0,3.0,89,0.00,,,0.00,weatherlink.com 1.10,2013-01-26 02:12:00,
2013-01-25 21:27:00,21.2,19.0,30.08,West,274,0.0,3.0,89,0.00,,,0.00,weatherlink.com 1.10,2013-01-26 02:27:00,
2013-01-25 21:42:00,21.1,18.0,30.08,WSW,256,1.0,2.0,89,0.00,,,0.00,weatherlink.com 1.10,2013-01-26 02:42:00,
2013-01-25 21:58:00,20.3,17.0,30.07,West,274,0.0,3.0,86,0.00,,,0.00,weatherlink.com 1.10,2013-01-26 02:58:00,
2013-01-25 22:13:00,19.5,16.0,30.07,SW,235,0.0,1.0,86,0.00,,,0.00,weatherlink.com 1.10,2013-01-26 03:13:00,
2013-01-25 22:28:00,18.8,15.0,30.07,WNW,283,0.0,1.0,86,0.00,,,0.00,weatherlink.com 1.10,2013-01-26 03:28:00,
2013-01-25 22:43:00,17.8,14.0,30.06,WNW,284,0.0,0.0,86,0.00,,,0.00,weatherlink.com 1.10,2013-01-26 03:43:00,
2013-01-25 22:58:00,17.2,14.0,30.06,WNW,284,0.0,0.0,88,0.00,,,0.00,weatherlink.com 1.10,2013-01-26 03:58:00,
2013-01-25 23:13:00,17.6,15.0,30.07,WSW,256,1.0,2.0,88,0.00,,,0.00,weatherlink.com 1.10,2013-01-26 04:13:00,
2013-01-25 23:28:00,17.9,14.0,30.06,WSW,240,0.0,1.0,86,0.00,,,0.00,weatherlink.com 1.10,2013-01-26 04:28:00,
2013-01-25 23:43:00,18.1,14.0,30.07,West,263,1.0,2.0,85,0.00,,,0.00,weatherlink.com 1.10,2013-01-26 04:43:00,
2013-01-25 23:58:00,17.8,14.0,30.06,WSW,246,0.0,0.0,84,0.00,,,0.00,weatherlink.com 1.10,2013-01-26 04:58:00,